User: anonymous   Login
Location: Unspecified
(0.0000°N, 0.0000°E)
Time: 01:50:56
(UTC+00:00)
Language:

Tiros 1 despin weight - Orbit

View from above orbital plane
View from above orbital plane
View from above satellite
View from above satellite

Ground track
Ground track

The orbit data is extracted from the following two-line orbital elements,

1   115U 60002D   17290.40213675 +.00000265 +00000-0 +59017-4 0  9991
2   115 048.1666 276.6691 0035678 276.9397 082.7458 14.83170667047209
Epoch (UTC): 17 October 2017 09:39:04
Eccentricity: 0.0035678
inclination: 48.1666°
perigee height: 594 km
apogee height: 644 km
right ascension of ascending node: 276.6691°
argument of perigee: 276.9397°
revolutions per day: 14.83170667
mean anomaly at epoch: 82.7458°
orbit number at epoch: 4720

The dashed part of the orbit path shows where the satellite is in the earth's shadow,  

DLR